Home   Weather   South Bend   Past weeks

Flag for USA Past Weather in South Bend, Indiana, USA — Yesterday and Last 2 Weeks

Now
62 °F

Sunny.


Feels Like: 62 °F
Forecast: 34 / 67 °F
Wind: 7 mph from North

Location: Michiana Regional Airport

Current Time: Apr 23, 2017 at 12:27:19 pm

Latest Report: Apr 23, 2017 at 11:54 am


Visibility: 10 mi

Pressure: 30.13 "Hg

Humidity: 37%

Dew Point: 35 °F

Location of South BendLocation

Past Weather in South Bend — Graph

°F

South Bend Temperature Yesterday

Maximum temperature yesterday: 62 °F (at 4:54 pm)
Minimum temperature yesterday: 36 °F (at 1:54 am)
Average temperature yesterday: 47 °F

High & Low Weather Summary for the Past Weeks

 TemperatureHumidityPressure
High79 °F (Apr 15, 3:54 pm)100% (Apr 11, 1:54 am)30.42 "Hg (Apr 11, 1:54 am)
Low31 °F (Apr 12, 6:54 am)26% (Apr 17, 5:54 pm)29.74 "Hg (Apr 9, 8:54 pm)
Average56 °F67%30.08 "Hg
* Reported Apr 8 10:54 am — Apr 23 10:54 am, South Bend, Weather by CustomWeather, © 2017

Note: Actual official high and low records may vary slightly from our data, if they occured in-between our weather recording intervals... More about our weather records

Advertising

South Bend Weather History for the Previous 24 Hours

Scroll right to see more
 ConditionsComfort  
Time TempWeatherWind HumidityBarometerVisibility
10:54 am
Sun, Apr 23
59 °FSunny.7 mph39%30.14 "Hg10 mi
9:54 am53 °FSunny.No wind52%30.16 "Hg10 mi
8:54 am46 °FSunny.No wind61%30.16 "Hg10 mi
7:54 am36 °FSunny.No wind79%30.17 "Hg10 mi
6:54 am31 °FSunny.3 mph85%30.16 "Hg10 mi
5:54 am31 °FClear.3 mph85%30.14 "Hg10 mi
4:54 am33 °FClear.No wind82%30.13 "Hg10 mi
3:54 am32 °FClear.3 mph82%30.14 "Hg10 mi
2:54 am35 °FClear.No wind72%30.14 "Hg10 mi
1:54 am39 °FClear.No wind60%30.16 "Hg10 mi
12:54 am37 °FClear.6 mph67%30.17 "Hg10 mi
11:54 pm
Sat, Apr 22
40 °FClear.7 mph58%30.16 "Hg10 mi
10:54 pm43 °FClear.12 mph51%30.16 "Hg10 mi
9:54 pm44 °FClear.9 mph53%30.16 "Hg10 mi
8:54 pm47 °FClear.12 mph48%30.14 "Hg10 mi
7:54 pm51 °FSunny.15 mph42%30.15 "Hg10 mi
6:54 pm56 °FSunny.15 mph44%30.14 "Hg10 mi
5:54 pm59 °FSunny.14 mph42%30.13 "Hg10 mi
4:54 pm62 °FSunny.8 mph30%30.12 "Hg10 mi
3:54 pm60 °FSunny.12 mph30%30.14 "Hg10 mi
2:54 pm60 °FSunny.9 mph36%30.16 "Hg10 mi
1:54 pm57 °FSunny.9 mph42%30.18 "Hg10 mi
12:54 pm54 °FSunny.10 mph47%30.19 "Hg10 mi
Weather by CustomWeather, © 2017

See weather overviewHow to use our weather pages